Location: ????????
(55.6189°N, 38.3031°E)
Time: 02:35:30
(UTC+00:00)

SJ 16-02 - Pass Details

Date: 15 November 2019
Orbit: 606 x 616 km, 75.0° (Epoch: 10 December)

Event Time Altitude Azimuth Distance (km) Brightness Sun altitude
Rises 03:05:25 0° 208° (SSW) 2,861 4.6 -15.9°
Reaches altitude 10° 03:07:39 10° 210° (SSW) 1,960 3.7 -15.6°
Maximum altitude 03:12:02 78° 297° (WNW) 628 1.2 -15.0°
Drops below altitude 10° 03:16:27 10° 24° (NNE) 1,972 4.1 -14.4°
Sets 03:18:42 0° 26° (NNE) 2,880 5.0 -14.1°
